Weather History for KSIF - April, 2013

Change the Weather History Date:

Wednesday, April 24, 2013

  Actual Average (KGSO) Record (KGSO)
Temperature  
Mean Temperature 60 °F 61 °F  
Max Temperature 74 °F 73 °F 94 °F (1925)
Min Temperature 46 °F 50 °F 27 °F (1986)
Degree Days  
Heating Degree Days 5 5  
Month to date heating degree days 192  
Since 1 July heating degree days 3517  
Cooling Degree Days 0 2  
Month to date cooling degree days 25  
Year to date cooling degree days 30  
Growing Degree Days 10 (Base 50)    
Moisture  
Dew Point 52 °F    
Average Humidity 74    
Maximum Humidity 100    
Minimum Humidity 48    
Precipitation  
Precipitation 0.00 in 0.12 in 1.65 in (1987)
Month to date precipitation 2.89  
Year to date precipitation 12.64  
Snow  
Snow 0.00 in 0.00 in T in (1955)
Month to date snowfall 0.1  
Since 1 July snowfall 7.6  
Snow Depth -    
Sea Level Pressure  
Sea Level Pressure 30.06 in    
Wind  
Wind Speed 4 mph (SW)    
Max Wind Speed 20 mph    
Max Gust Speed 31 mph    
Visibility 9 miles    
Events      
T = Trace of Precipitation, MM = Missing Value Source: NWS Daily Summary

Daily Weather History Graph

Daily Weather History Graph

Search for Another Location

Airport or City:

Trip Planner

Search our weather history database for the weather conditions in past years. The results will help you decide how hot, cold, wet, or windy it might be!

Date:

Astronomy

Apr. 24, 2013 Rise Set
Actual Time 6:33 AM EDT 8:01 PM EDT
Civil Twilight 6:06 AM EDT 8:28 PM EDT
Nautical Twilight 5:34 AM EDT 9:01 PM EDT
Astronomical Twilight 5:00 AM EDT 9:35 PM EDT
Moon 7:03 PM EDT (4/24) 5:34 AM EDT (4/24)
Length of Visible Light 14h 21m
Length of Day
13h 27m
Waxing Gibbous, 98% of the Moon is Illuminated
Apr 24
Waxing Gibbous
Apr 25
Full
May 2
Last Quarter
May 9
New
May 18
First Quarter

Hourly Weather History & Observations

Time (EDT) Temp. Dew Point Humidity Pressure Visibility Wind Dir Wind Speed Gust Speed Precip Events Conditions
12:15 AM 50.9 °F 50.0 °F 97% 30.13 in 10.0 mi Calm Calm - N/A   Clear
12:35 AM 51.1 °F 49.8 °F 95% 30.13 in 10.0 mi Calm Calm - N/A   Clear
12:55 AM 49.8 °F 48.7 °F 96% 30.13 in 10.0 mi Calm Calm - N/A   Clear
1:15 AM 49.5 °F 47.8 °F 94% 30.12 in 10.0 mi Calm Calm - N/A   Clear
1:35 AM 49.1 °F 48.4 °F 97% 30.12 in 10.0 mi Calm Calm - N/A   Clear
1:55 AM 48.6 °F 47.8 °F 97% 30.12 in 10.0 mi Calm Calm - N/A   Clear
2:15 AM 48.0 °F 47.7 °F 99% 30.11 in 7.0 mi Calm Calm - N/A   Clear
2:35 AM 48.0 °F 47.7 °F 99% 30.11 in 7.0 mi Calm Calm - N/A   Clear
2:55 AM 47.7 °F 47.5 °F 99% 30.11 in 7.0 mi Calm Calm - N/A   Clear
3:15 AM 46.8 °F 46.4 °F 99% 30.11 in 5.0 mi Calm Calm - N/A   Clear
3:35 AM 46.4 °F 46.2 °F 99% 30.10 in 5.0 mi Calm Calm - N/A   Clear
3:55 AM 50.2 °F 50.2 °F 100% 30.10 in 10.0 mi SW 3.5 mph - N/A   Clear
4:15 AM 51.1 °F 50.9 °F 99% 30.10 in 10.0 mi SW 4.6 mph - N/A   Clear
4:35 AM 50.9 °F 50.4 °F 98% 30.10 in 10.0 mi SW 3.5 mph - N/A   Clear
4:55 AM 50.9 °F 50.0 °F 97% 30.10 in 10.0 mi SW 3.5 mph - N/A   Clear
5:15 AM 50.9 °F 50.2 °F 97% 30.11 in 10.0 mi SW 3.5 mph - N/A   Clear
5:35 AM 50.4 °F 49.6 °F 97% 30.11 in 7.0 mi Calm Calm - N/A   Clear
5:55 AM 50.0 °F 49.3 °F 97% 30.11 in 7.0 mi Calm Calm - N/A   Clear
6:15 AM 49.1 °F 48.6 °F 98% 30.11 in 7.0 mi Calm Calm - N/A   Clear
6:35 AM 48.6 °F 48.0 °F 98% 30.11 in 7.0 mi Calm Calm - N/A   Clear
6:55 AM 47.1 °F 46.8 °F 99% 30.11 in 3.0 mi Calm Calm - N/A   Clear
7:15 AM 47.5 °F 47.1 °F 99% 30.11 in 2.5 mi Calm Calm - N/A   Clear
7:35 AM 50.2 °F 50.2 °F 100% 30.12 in 5.0 mi Calm Calm - N/A   Clear
7:55 AM 51.6 °F 51.4 °F 99% 30.12 in 5.0 mi Calm Calm - N/A   Clear
8:15 AM 53.4 °F 52.3 °F 96% 30.12 in 7.0 mi SSW 4.6 mph - N/A   Clear
8:35 AM 55.4 °F 52.9 °F 91% 30.12 in 10.0 mi SSW 5.8 mph - N/A   Clear
8:55 AM 56.7 °F 53.1 °F 88% 30.11 in 10.0 mi SW 5.8 mph - N/A   Mostly Cloudy
9:15 AM 57.9 °F 53.6 °F 86% 30.11 in 10.0 mi WSW 4.6 mph - N/A   Scattered Clouds
9:35 AM 59.9 °F 54.0 °F 81% 30.10 in 10.0 mi WSW 8.1 mph - N/A   Clear
9:55 AM 62.1 °F 54.3 °F 76% 30.10 in 10.0 mi WSW 5.8 mph - N/A   Clear
10:15 AM 62.8 °F 54.5 °F 74% 30.09 in 10.0 mi SW 8.1 mph - N/A   Clear
10:35 AM 64.6 °F 54.0 °F 68% 30.09 in 10.0 mi SSW 8.1 mph - N/A   Clear
10:55 AM 64.6 °F 54.0 °F 68% 30.08 in 10.0 mi SW 9.2 mph 17.3 mph N/A   Clear
11:15 AM 65.5 °F 53.8 °F 66% 30.08 in 10.0 mi WSW 8.1 mph 16.1 mph N/A   Clear
11:35 AM 66.7 °F 54.9 °F 66% 30.07 in 10.0 mi WSW 6.9 mph - N/A   Clear
11:55 AM 67.8 °F 54.7 °F 63% 30.06 in 10.0 mi SSW 15.0 mph - N/A   Scattered Clouds
12:15 PM 68.7 °F 54.7 °F 61% 30.06 in 10.0 mi SSW 11.5 mph 16.1 mph N/A   Clear
12:35 PM 70.0 °F 55.0 °F 59% 30.05 in 10.0 mi South 10.4 mph 18.4 mph N/A   Scattered Clouds
12:55 PM 71.1 °F 54.5 °F 56% 30.05 in 10.0 mi SSW 12.7 mph 19.6 mph N/A   Clear
1:15 PM 72.3 °F 54.0 °F 52% 30.05 in 10.0 mi SW 15.0 mph 20.7 mph N/A   Scattered Clouds
1:35 PM 70.7 °F 53.2 °F 54% 30.05 in 10.0 mi SSW 17.3 mph 25.3 mph N/A   Scattered Clouds
1:55 PM 72.3 °F 54.5 °F 53% 30.03 in 10.0 mi SW 10.4 mph 18.4 mph N/A   Clear
2:15 PM 72.3 °F 53.6 °F 52% 30.02 in 10.0 mi SW 15.0 mph 31.1 mph N/A   Scattered Clouds
2:35 PM 72.9 °F 53.6 °F 51% 30.02 in 10.0 mi SSW 15.0 mph 21.9 mph N/A   Scattered Clouds
2:55 PM 73.2 °F 54.3 °F 51% 30.01 in 10.0 mi SW 15.0 mph 25.3 mph N/A   Scattered Clouds
3:15 PM 74.1 °F 53.4 °F 48% 30.01 in 10.0 mi SSW 15.0 mph 25.3 mph N/A   Scattered Clouds
3:35 PM 73.8 °F 52.7 °F 48% 30.01 in 10.0 mi SW 19.6 mph 27.6 mph N/A   Clear
3:55 PM 73.2 °F 52.7 °F 48% 30.00 in 10.0 mi SW 13.8 mph 24.2 mph N/A   Clear
4:15 PM 73.6 °F 53.2 °F 49% 29.99 in 10.0 mi SW 13.8 mph 25.3 mph N/A   Scattered Clouds
4:35 PM 73.8 °F 53.2 °F 49% 29.98 in 10.0 mi SW 15.0 mph 27.6 mph N/A   Clear
4:55 PM 72.9 °F 53.2 °F 50% 29.97 in 10.0 mi SW 13.8 mph 25.3 mph N/A   Clear
5:15 PM 73.0 °F 53.6 °F 50% 29.97 in 10.0 mi SW 9.2 mph 17.3 mph N/A   Scattered Clouds
5:35 PM 72.7 °F 53.4 °F 51% 29.98 in 10.0 mi SW 8.1 mph 20.7 mph N/A   Mostly Cloudy
5:55 PM 73.0 °F 53.8 °F 51% 29.97 in 10.0 mi SW 13.8 mph 19.6 mph N/A   Mostly Cloudy
6:15 PM 73.2 °F 53.4 °F 50% 29.97 in 10.0 mi SW 13.8 mph 19.6 mph N/A   Scattered Clouds
6:35 PM 72.9 °F 53.4 °F 50% 29.98 in 10.0 mi SSW 11.5 mph 19.6 mph N/A   Clear
6:55 PM 72.7 °F 53.8 °F 51% 29.98 in 10.0 mi SW 9.2 mph 18.4 mph N/A   Clear
7:15 PM 72.0 °F 54.1 °F 53% 29.98 in 10.0 mi SW 8.1 mph - N/A   Scattered Clouds
7:35 PM 71.8 °F 54.0 °F 53% 29.98 in 10.0 mi SW 6.9 mph - N/A   Mostly Cloudy
7:55 PM 71.6 °F 53.6 °F 53% 29.98 in 10.0 mi SW 11.5 mph 18.4 mph N/A   Mostly Cloudy
8:15 PM 71.1 °F 54.0 °F 55% 29.99 in 10.0 mi SW 6.9 mph - N/A   Overcast
8:35 PM 70.3 °F 54.1 °F 56% 30.00 in 10.0 mi SW 5.8 mph - N/A   Mostly Cloudy
8:55 PM 70.0 °F 54.5 °F 58% 30.00 in 10.0 mi SSW 4.6 mph - N/A   Mostly Cloudy
9:15 PM 69.3 °F 54.5 °F 59% 30.00 in 10.0 mi SW 6.9 mph - N/A   Mostly Cloudy
9:35 PM 68.7 °F 54.5 °F 60% 30.00 in 10.0 mi SSW 4.6 mph - N/A   Mostly Cloudy
9:55 PM 67.6 °F 54.7 °F 63% 30.00 in 10.0 mi Calm Calm - N/A   Mostly Cloudy
11:15 PM 62.2 °F 54.7 °F 76% 30.01 in 10.0 mi Calm Calm - N/A   Clear
11:35 PM 58.3 °F 54.5 °F 87% 30.01 in 10.0 mi Calm Calm - N/A   Clear
11:55 PM 58.6 °F 55.2 °F 88% 30.01 in 10.0 mi Calm Calm - N/A   Scattered Clouds